Wind_Speed
10 7 5 5 9 9 4 4 2 5 6 6 6 7 8 9 10 11 11 12 13 14 15 16 16 17 17 17 17 16 16 17 17 16 17 19 20 21 24 26 27 24 24 25 26
8 6 4 4 7 8 3 4 5 7 9 10 10 11 12 12 13 13 14 14 16 17 18 18 18 19 20 19 18 17 18 19 19 20 21 22 23 24 25 30 29 29 29 29 29
13 12 11 7 8 9 8 8 9 11 13 15 16 16 16 16 16 16 17 18 19 20 21 21 21 21 20 19 18 19 20 22 21 23 23 24 26 25 28 30 27 29 31 31 30
11 11 11 11 11 11 11 13 16 18 20 20 20 20 19 19 20 20 21 22 23 23 23 23 22 21 19 19 20 20 21 23 24 24 25 26 26 26 29 25 27 31 31 33 35
9 10 10 11 14 16 18 17 16 16 18 19 20 21 22 23 23 24 24 25 25 26 25 24 23 22 21 21 22 23 23 24 25 25 25 24 24 27 28 29 31 32 34 37 39
10 10 12 13 16 18 18 19 18 16 17 18 19 21 21 21 22 23 24 25 25 24 23 22 22 22 22 23 23 24 25 25 23 21 22 24 27 29 30 33 37 38 40 42 42
10 12 13 14 16 17 18 19 18 17 17 17 17 17 17 18 19 20 19 20 20 20 20 21 21 22 23 22 22 22 21 22 24 26 27 27 30 33 36 38 40 42 44 45 47
11 12 13 16 17 18 18 18 18 17 16 15 15 15 16 15 16 16 17 18 19 20 20 19 19 19 19 20 20 20 22 25 27 30 32 33 33 36 40 40 43 45 47 49 51
12 13 14 17 18 20 20 20 19 17 15 15 14 14 14 14 14 14 14 15 15 16 15 16 16 17 18 20 22 24 27 28 30 33 36 37 37 41 44 46 48 50 51 51 53
14 16 17 18 19 20 21 21 20 18 16 17 16 15 14 13 14 15 15 16 16 17 17 18 20 21 23 25 28 29 30 32 34 35 36 37 40 44 48 51 53 53 56 57 59
16 17 18 20 20 21 21 20 21 19 17 17 16 15 15 15 16 15 15 17 19 19 21 21 24 26 28 28 30 32 34 37 37 39 42 44 45 46 49 51 54 58 62 64 67
17 19 19 20 21 20 19 19 19 19 21 18 16 16 17 17 14 17 18 19 21 23 24 25 25 26 29 32 35 38 40 42 45 47 49 49 50 53 57 61 62 64 67 71 73
17 18 20 20 19 20 20 20 21 21 20 19 19 18 19 17 18 18 20 24 24 24 24 24 28 31 34 37 38 41 43 45 49 53 56 60 60 63 67 72 72 74 77 79 79
19 21 22 21 21 20 20 20 21 20 22 24 21 20 20 21 20 21 23 25 24 24 26 30 33 35 36 38 40 43 48 53 57 62 67 72 74 75 79 81 83 89 91 89 85
22 24 25 23 21 21 21 22 22 25 26 23 22 21 21 22 25 23 24 24 26 28 29 32 35 37 40 44 47 52 56 60 64 71 78 80 83 81 84 88 88 89 88 89 86
25 26 26 24 22 20 22 24 25 25 24 23 22 21 22 22 23 26 28 28 29 31 32 35 39 42 46 50 54 60 66 71 76 82 85 85 86 87 85 87 86 83 80 80 79
28 28 27 26 25 25 25 27 26 25 25 23 22 22 22 23 25 27 29 28 29 33 36 40 45 49 54 60 66 70 74 79 85 90 91 92 93 89 89 82 75 71 72 70 68
30 29 29 27 28 26 23 24 23 23 22 22 24 22 23 26 28 29 31 32 34 37 42 46 52 58 62 66 72 79 84 89 89 92 91 89 89 82 78 67 62 68 67 62 58
30 30 28 28 27 27 25 23 21 20 22 24 25 25 26 28 30 32 34 36 40 44 50 55 60 64 69 75 79 84 89 91 91 92 92 87 84 77 66 57 61 64 60 54 53
28 29 31 32 30 24 21 21 22 24 27 28 28 28 29 30 32 36 40 44 47 50 55 60 64 69 73 79 85 89 91 89 86 81 78 77 71 67 55 58 58 56 53 50 46
29 29 33 31 26 25 27 27 25 25 26 28 29 31 32 35 38 41 42 44 50 54 57 62 67 70 78 88 87 87 89 87 76 69 69 70 68 55 53 54 54 50 47 45 39
30 32 31 27 24 27 29 29 28 28 28 30 32 35 38 41 44 44 45 54 55 59 63 67 71 76 84 87 88 93 93 78 67 63 60 59 65 49 52 54 47 44 40 36 34
34 34 32 31 32 31 29 27 28 28 29 32 33 34 37 41 44 47 51 55 60 64 67 71 76 81 85 90 94 93 80 65 59 57 55 57 58 49 47 43 37 35 31 31 31
39 38 35 34 34 33 30 29 31 30 32 33 34 36 39 42 47 52 56 59 64 68 73 79 81 84 88 89 86 80 66 57 54 57 55 52 52 43 41 37 30 27 26 28 32
41 36 33 32 32 30 31 31 32 32 31 31 34 37 42 47 50 55 59 62 68 73 78 80 86 88 90 80 74 68 57 51 52 51 51 49 44 38 35 30 27 24 24 30 34
35 31 33 34 36 37 34 34 34 33 31 32 38 46 49 53 56 60 64 70 73 75 79 85 85 89 92 77 70 59 53 53 49 47 46 42 36 30 29 27 24 22 26 31 34
36 37 39 42 39 37 34 37 41 38 35 39 42 49 56 59 62 66 70 75 77 79 83 86 86 86 84 69 63 55 52 46 42 40 39 32 29 25 25 27 25 22 27 32 36
Wind_Direction
322 320 325 336 6 22 89 135 292 312 331 330 318 293 288 292 296 296 297 299 302 305 308 310 311 311 307 303 300 298 295 296 293 290 291 291 291 291 291 290 284 288 287 284 285
36 27 9 359 4 7 2 202 238 279 296 307 309 304 292 289 290 292 291 293 296 301 303 304 306 306 305 302 298 294 294 295 292 291 291 292 291 290 290 284 291 292 290 290 290
54 48 40 18 355 339 313 280 259 262 272 281 287 289 292 289 287 287 289 291 296 298 301 303 303 304 303 300 295 292 291 290 289 288 291 293 292 294 287 291 294 291 291 292 292
46 43 38 33 21 358 333 307 288 281 279 280 282 284 286 288 288 289 290 291 294 297 300 301 301 300 297 293 291 290 292 291 291 293 294 294 293 290 289 294 292 291 291 291 291
36 23 27 10 357 352 346 336 319 300 292 288 286 286 286 287 289 290 290 292 294 298 299 300 299 298 295 296 297 298 296 295 296 297 296 296 295 291 296 296 292 289 289 289 289
18 2 354 348 342 346 347 348 342 334 315 307 294 289 290 292 293 294 295 296 299 300 301 301 301 301 301 302 301 300 299 299 298 297 298 299 295 295 296 292 289 287 285 285 285
357 351 347 346 347 346 348 348 347 343 339 326 308 307 303 299 297 297 300 303 303 302 302 304 304 304 304 303 302 301 299 299 300 299 297 294 291 289 287 285 285 286 288 289 289
348 345 341 341 340 343 342 344 345 344 347 346 340 332 324 321 318 314 313 312 309 308 309 309 308 308 308 305 303 299 295 296 295 295 293 293 290 289 287 287 288 290 288 288 288
341 340 343 341 338 336 336 337 337 338 342 346 348 347 343 336 331 329 325 321 318 316 316 314 312 309 307 305 302 299 297 295 294 293 295 295 294 292 292 293 292 292 291 289 287
337 338 335 335 333 332 333 333 335 331 334 337 340 342 344 337 334 327 322 319 317 315 314 313 311 309 307 304 301 298 297 296 298 295 294 293 294 294 294 294 294 292 291 289 288
336 334 331 329 329 329 331 330 333 330 329 326 328 333 336 329 322 319 318 315 314 313 313 310 307 305 304 304 302 301 301 300 299 298 299 299 296 293 292 293 292 292 292 292 291
333 333 331 332 330 330 327 329 329 328 324 323 321 322 322 321 320 320 317 316 314 313 310 308 307 306 306 305 306 305 305 303 303 304 303 303 302 301 301 300 299 297 297 296 293
329 333 332 331 329 327 328 326 324 323 322 317 318 316 317 317 317 315 311 310 309 309 306 304 307 307 307 306 305 305 305 307 307 307 308 307 306 308 308 308 305 304 301 297 292
330 335 334 330 325 324 322 321 320 320 324 323 317 312 314 313 313 311 307 307 306 304 303 304 304 306 307 309 311 311 312 314 314 312 311 309 308 308 307 306 307 306 304 298 292
326 329 329 327 328 328 325 322 326 320 316 318 319 316 315 310 310 309 306 305 303 304 306 305 308 310 312 313 314 315 314 313 313 314 312 309 307 306 303 304 304 302 297 294 295
322 326 327 327 328 325 324 325 325 324 322 318 316 313 309 304 303 307 306 304 306 308 310 310 312 314 316 316 316 314 314 314 314 312 310 309 307 308 309 307 304 300 299 297 296
319 322 322 323 322 321 318 318 318 317 317 313 310 305 303 304 305 306 307 308 308 307 309 312 314 317 317 319 320 321 319 317 316 314 310 310 308 311 309 306 305 301 297 295 296
312 316 320 318 319 321 326 329 325 319 315 312 305 302 302 302 304 307 307 309 309 311 311 312 317 320 321 323 323 322 321 317 314 312 309 308 309 312 306 305 302 298 298 300 301
311 317 318 320 322 323 320 322 318 319 312 308 303 302 302 304 307 306 306 308 309 311 314 316 317 320 322 323 322 321 317 316 312 310 308 308 307 311 308 308 300 300 305 306 305
314 316 318 320 320 321 320 324 318 314 313 311 309 307 305 305 304 307 311 313 313 314 315 316 317 320 322 324 320 317 316 314 311 308 308 307 311 308 310 301 301 306 305 303 303
310 310 317 317 316 316 313 313 312 312 312 310 308 306 302 304 308 310 311 316 320 319 319 320 320 319 319 318 318 317 315 312 309 309 308 310 311 317 310 307 308 307 305 308 310
306 309 313 309 309 315 314 308 307 309 310 311 311 310 309 312 313 312 314 318 320 320 319 317 314 316 318 317 318 318 315 313 311 312 309 307 309 316 309 309 309 309 310 314 317
304 304 307 304 305 310 313 314 312 310 310 312 313 313 315 318 317 317 318 320 320 319 317 316 316 317 317 318 319 318 317 314 311 307 310 299 312 310 305 304 303 306 312 316 317
300 300 299 298 301 308 310 311 310 310 311 312 316 317 317 320 322 322 322 321 318 317 315 314 317 317 317 317 317 315 315 311 304 303 302 308 307 308 304 306 306 309 313 318 320
298 293 292 297 299 305 311 312 312 312 312 317 320 323 325 322 320 321 320 319 318 316 315 317 319 317 317 317 315 313 315 309 304 304 303 308 306 303 310 307 303 305 315 320 320
294 289 292 299 299 301 309 309 312 310 307 311 318 323 325 323 320 317 316 315 316 315 315 316 315 314 315 315 312 316 312 311 311 312 305 304 307 306 307 304 302 311 317 320 324
288 287 293 300 297 302 308 307 305 302 300 308 316 322 323 321 318 316 317 316 316 317 317 316 315 315 316 315 316 313 315 314 313 304 305 306 303 309 316 306 304 311 315 325 326
Height
5887 5887 5887 5888 5888 5887 5886 5887 5888 5888 5888 5888 5888 5888 5889 5889 5889 5888 5888 5888 5887 5886 5886 5885 5884 5883 5882 5881 5880 5879 5878 5877 5876 5876 5875 5874 5872 5870 5868 5866 5864 5866 5865 5863 5861
5887 5887 5887 5887 5887 5887 5887 5887 5887 5887 5887 5887 5886 5886 5886 5886 5886 5885 5885 5885 5884 5883 5882 5881 5880 5879 5878 5877 5876 5875 5874 5873 5872 5871 5870 5869 5867 5866 5865 5860 5860 5859 5859 5857 5856
5887 5887 5887 5887 5887 5887 5886 5886 5886 5885 5885 5884 5884 5884 5883 5883 5883 5882 5881 5881 5880 5879 5878 5877 5876 5875 5874 5873 5872 5871 5870 5869 5868 5868 5866 5865 5863 5862 5858 5857 5856 5854 5852 5851 5851
5888 5888 5887 5887 5887 5886 5885 5883 5882 5881 5881 5880 5880 5879 5879 5879 5880 5878 5877 5876 5875 5874 5874 5873 5872 5871 5870 5869 5868 5867 5866 5864 5864 5863 5862 5860 5859 5856 5853 5854 5851 5848 5847 5844 5841
5889 5888 5888 5887 5886 5885 5883 5881 5879 5877 5876 5875 5875 5875 5874 5874 5874 5873 5872 5871 5870 5870 5869 5868 5867 5866 5865 5865 5864 5862 5861 5860 5859 5859 5857 5855 5853 5850 5850 5848 5845 5843 5841 5838 5835
5889 5888 5887 5886 5885 5883 5881 5878 5876 5874 5872 5871 5870 5870 5870 5870 5868 5867 5867 5866 5866 5865 5864 5863 5862 5862 5861 5861 5860 5858 5856 5855 5855 5854 5853 5851 5848 5846 5844 5840 5836 5835 5833 5831 5828
5888 5887 5886 5885 5883 5881 5879 5877 5874 5872 5869 5867 5866 5865 5865 5865 5863 5863 5862 5862 5861 5860 5860 5860 5859 5858 5857 5857 5855 5854 5853 5851 5849 5848 5847 5845 5842 5839 5835 5832 5828 5826 5823 5820 5817
5888 5887 5885 5884 5882 5880 5878 5876 5873 5871 5868 5866 5864 5863 5862 5861 5860 5860 5859 5858 5857 5856 5856 5855 5854 5854 5853 5852 5851 5850 5849 5847 5844 5842 5839 5838 5836 5830 5826 5823 5821 5818 5814 5811 5807
5886 5885 5884 5882 5880 5879 5876 5874 5872 5870 5867 5865 5863 5862 5860 5859 5858 5857 5857 5856 5854 5853 5852 5851 5850 5849 5849 5847 5846 5844 5842 5840 5838 5834 5832 5830 5829 5824 5818 5815 5812 5807 5803 5799 5794
5885 5884 5882 5881 5879 5877 5875 5873 5870 5868 5866 5864 5862 5862 5859 5857 5856 5855 5853 5852 5850 5849 5848 5847 5846 5844 5843 5841 5839 5837 5836 5834 5831 5829 5826 5823 5819 5814 5809 5804 5800 5795 5790 5785 5780
5883 5881 5879 5878 5877 5875 5873 5871 5870 5868 5864 5862 5860 5858 5856 5855 5853 5851 5850 5849 5848 5846 5845 5843 5842 5839 5837 5835 5832 5830 5827 5824 5821 5817 5815 5812 5808 5803 5798 5794 5788 5783 5776 5770 5765
5880 5878 5877 5875 5873 5872 5870 5868 5867 5865 5861 5859 5857 5855 5854 5852 5851 5849 5847 5846 5844 5843 5840 5838 5836 5833 5830 5828 5825 5822 5819 5816 5812 5808 5802 5800 5797 5790 5784 5777 5771 5764 5759 5753 5746
5877 5875 5873 5871 5870 5868 5866 5865 5863 5861 5859 5856 5854 5852 5850 5849 5847 5845 5843 5841 5839 5838 5835 5833 5831 5828 5826 5822 5819 5815 5811 5807 5802 5797 5793 5788 5786 5779 5770 5760 5751 5744 5738 5730 5721
5873 5872 5870 5868 5867 5864 5863 5861 5859 5857 5855 5854 5850 5848 5846 5844 5843 5841 5838 5837 5834 5833 5830 5828 5825 5822 5819 5815 5811 5806 5801 5797 5791 5784 5780 5773 5766 5765 5751 5739 5730 5721 5712 5702 5693
5869 5867 5866 5864 5863 5861 5859 5856 5854 5852 5851 5849 5846 5844 5842 5841 5838 5837 5834 5832 5830 5827 5826 5822 5818 5814 5811 5807 5803 5798 5791 5785 5778 5770 5763 5758 5745 5750 5738 5722 5711 5700 5688 5678 5672
5865 5864 5862 5860 5858 5857 5854 5852 5850 5849 5845 5844 5841 5839 5837 5835 5832 5830 5828 5826 5824 5821 5818 5815 5810 5806 5800 5795 5789 5783 5775 5768 5762 5751 5744 5735 5727 5726 5711 5699 5690 5676 5665 5657 5649
5860 5859 5858 5856 5855 5852 5850 5848 5847 5843 5842 5839 5836 5833 5831 5829 5827 5825 5822 5821 5818 5813 5809 5805 5800 5795 5789 5783 5774 5767 5758 5749 5746 5736 5724 5716 5705 5709 5688 5673 5664 5655 5647 5639 5630
5855 5854 5852 5850 5849 5846 5844 5842 5840 5837 5835 5833 5831 5829 5827 5824 5822 5819 5816 5813 5809 5805 5799 5795 5789 5783 5776 5769 5761 5751 5743 5730 5715 5713 5708 5705 5691 5687 5668 5658 5644 5634 5626 5624 5616
5850 5848 5846 5844 5842 5840 5839 5836 5833 5832 5830 5827 5825 5822 5820 5818 5815 5811 5808 5805 5801 5797 5792 5784 5779 5771 5764 5756 5748 5737 5727 5715 5696 5691 5677 5675 5672 5674 5648 5638 5624 5618 5612 5608 5601
5844 5842 5841 5839 5837 5834 5833 5830 5828 5826 5824 5822 5819 5817 5813 5810 5807 5803 5800 5796 5791 5786 5779 5772 5766 5760 5751 5743 5732 5720 5708 5695 5681 5664 5653 5651 5652 5643 5635 5621 5614 5608 5599 5596 5592
5839 5837 5834 5832 5831 5829 5827 5825 5822 5819 5817 5815 5812 5809 5806 5803 5801 5796 5792 5788 5783 5776 5769 5762 5757 5751 5737 5725 5716 5706 5689 5675 5665 5656 5639 5626 5635 5630 5614 5605 5600 5597 5588 5583 5580
5831 5831 5828 5826 5826 5822 5819 5817 5816 5813 5811 5808 5806 5803 5800 5796 5793 5788 5784 5778 5770 5762 5756 5751 5741 5735 5724 5706 5698 5685 5666 5654 5644 5638 5630 5617 5614 5614 5603 5596 5588 5584 5580 5575 5571
5824 5823 5821 5820 5818 5815 5812 5811 5809 5806 5804 5802 5799 5796 5792 5788 5783 5778 5772 5765 5758 5750 5743 5735 5725 5715 5707 5690 5678 5666 5650 5638 5628 5621 5620 5601 5603 5603 5596 5591 5584 5577 5575 5569 5565
5817 5815 5814 5812 5810 5808 5806 5804 5802 5800 5797 5795 5792 5788 5784 5780 5774 5767 5760 5753 5744 5736 5728 5717 5710 5698 5684 5674 5658 5650 5644 5632 5619 5610 5602 5603 5589 5592 5587 5581 5577 5574 5569 5564 5560
5807 5806 5804 5803 5802 5800 5798 5796 5794 5792 5789 5786 5784 5779 5774 5769 5762 5755 5749 5741 5732 5722 5711 5702 5695 5684 5667 5654 5642 5631 5627 5621 5607 5601 5591 5589 5585 5580 5578 5575 5571 5568 5564 5560 5555
5798 5797 5796 5795 5793 5792 5789 5788 5786 5783 5780 5776 5773 5768 5763 5757 5751 5743 5736 5727 5721 5708 5694 5683 5673 5666 5663 5643 5629 5624 5617 5607 5597 5591 5582 5579 5579 5574 5572 5568 5565 5563 5559 5555 5549
5789 5788 5787 5786 5785 5783 5781 5779 5776 5773 5770 5766 5762 5757 5752 5748 5740 5730 5720 5712 5702 5691 5679 5667 5653 5640 5639 5626 5619 5612 5607 5599 5590 5582 5577 5576 5572 5569 5567 5564 5561 5559 5555 5550 5544